Flag for Germany Weather past 2 weeks in Bad Nauheim, Hesse, Germany

Now
42 °F

Overcast.


Feels Like: 39 °F
Forecast: 36 / 44 °F
Wind: 5 mph from Southeast

Location: Giessen

Current Time: Mar 1, 2015 at 10:35:13 PM

Latest Report: Mar 1, 2015 at 10:00 PM


Visibility: 19 mi

Pressure: 29.65 "Hg

Humidity: 87%

Dew point: 39 °F

Location of Bad NauheimLocation

Historic Weather in Bad Nauheim — Graph

°F

Bad Nauheim temperature yesterday

Maximum temperature yesterday: 45 °F (at 3:00 PM)
Minimum temperature yesterday: 29 °F (at 8:00 AM)
Average temperature yesterday: 35 °F

Past Weeks' High & Low Weather Summary

 TemperatureHumidityPressure
High51 °F (Mar 1, 3:00 PM)100% (Feb 15, 3:00 AM)30.77 "Hg (Feb 15, 3:00 AM)
Low25 °F (Feb 15, 6:00 AM)52% (Feb 28, 5:00 PM)29.41 "Hg (Feb 21, 7:00 AM)
Average37 °F86%30.02 "Hg
* Reported Feb 14 8:00 PM — Mar 1 8:00 PM, Bad Nauheim, Weather by CustomWeather, © 2015

Note: Actual official high and low records may vary slightly from our data, if they occured in-between our weather recording intervals... More about our weather records

Advertising

Bad Nauheim weather history for previous 24 hours

 ConditionsComfort  
Time TempWeatherWind HumidityBarometerVisibility
8:00 PM
Sun, Mar 1
42 °FClear.6 mph91%29.68 "Hg22 mi
7:00 PM43 °FOvercast.7 mph90%29.68 "Hg25 mi
6:00 PM45 °FLight rain. Low clouds.3 mph85%29.68 "Hg14 mi
5:00 PM50 °FOvercast.8 mph63%29.65 "Hg28 mi
4:00 PM50 °FScattered clouds.9 mph57%29.65 "Hg22 mi
3:00 PM51 °FOvercast.12 mph68%29.65 "Hg16 mi
2:00 PM48 °FOvercast.8 mph82%29.66 "Hg37 mi
1:00 PM47 °FLow clouds.6 mph89%29.68 "Hg17 mi
12:00 PM40 °FDrizzle. Low clouds.3 mph95%29.71 "Hg6 mi
11:00 AM41 °FLow clouds.6 mph96%29.71 "Hg17 mi
10:00 AM38 °FFog.5 mph97%29.71 "Hg3 mi
9:00 AM37 °FLow clouds.8 mph97%29.71 "Hg4 mi
8:00 AM35 °FRain. Low clouds.7 mph98%29.72 "Hg2 mi
7:00 AM36 °FLight freezing rain. Low clouds.6 mph96%29.73 "Hg3 mi
6:00 AM36 °FRain. Low clouds.6 mph93%29.75 "Hg4 mi
5:00 AM36 °FRain. Overcast.6 mph90%29.77 "Hg5 mi
4:00 AM37 °FOvercast.7 mph80%29.79 "Hg10 mi
3:00 AM37 °FOvercast.8 mph77%29.83 "Hg12 mi
2:00 AM36 °FOvercast.5 mph79%29.86 "Hg13 mi
1:00 AM36 °FOvercast.3 mph76%29.90 "Hg14 mi
12:00 AM36 °FOvercast.5 mph75%29.93 "Hg16 mi
11:00 PM
Sat, Feb 28
35 °FOvercast.3 mph78%29.96 "Hg16 mi
10:00 PM33 °FOvercast.2 mph81%30.00 "Hg14 mi
Weather by CustomWeather, © 2015

See weather overviewHow to use our weather pages